カタログに戻る

THOR ABLESTAR DEB

運用中LEO
NORAD 5715·DEBRIS·🇺🇸 United States

打ち上げ Jun 29, 1961 から Cape Canaveral Space Force Station

Loading…

次のパス (今後24時間)

TLE

最新Source: Space-Track

元期: Sep 13, 2026, 02:08 UTC

1 05715U 61015JS  26256.08942030  .00000623  00000-0  80137-3 0  9991
2 05715  66.5589 250.1882 0152279   1.1661  62.7230 13.64501094213724

AllMySatでTHOR ABLESTAR DEBをリアルタイム追跡

Download on the App Store